Regional Weather Roundup
Issued by NWS

Home | Current Version | Previous Version | Text Only | Print | Product List | Glossary Off
Versions: 1 2 3 4 5 6 7 8 9 10 11 12 13 14 15 16 17 18 19 20 21 22 23 24 25 26 27 28 29 30 31 32 33 34 35 36 37 38 39 40 41 42 43 44 45 46 47 48 49 50

000
ASUS43 KDTX 020910
RWRMI
MICHIGAN HOURLY REGIONAL WEATHER ROUNDUP
NATIONAL WEATHER SERVICE DETROIT/PONTIAC MI
500 AM EDT MON MAY 02 2016

NOTE: "FAIR" INDICATES FEW OR NO CLOUDS BELOW 12,000 FEET WITH NO
SIGNIFICANT WEATHER AND/OR OBSTRUCTION TO VISIBILITY.

MIZ047>049-052>055-059>063-066>070-074>076-081>083-021000-
SOUTHEAST LOWER MICHIGAN

CITY           SKY/WX    TMP DP  RH WIND       PRES   REMARKS
ADRIAN         CLOUDY    46  44  93 NE9       29.93S
ALMA           CLOUDY    42  38  85 N9        30.02F
ANN ARBOR      CLOUDY    46  44  93 NE7       29.93F
BAD AXE        CLOUDY    41  40  94 NE6       30.00F
CARO           CLOUDY    42  40  93 N7        29.99R
DETROIT CITY   CLOUDY    46  44  93 NE5       29.94S
DETROIT        CLOUDY    46  45  93 N6        29.94F FOG
FLINT          LGT RAIN  45  41  86 NE12      29.96F
GROSSE ILE     CLOUDY    46  45  93 NE5       29.93S
HILLSDALE      CLOUDY    44  44 100 N7        29.92F
HOWELL         DRIZZLE   43  42  98 N3        29.95R

CITY           SKY/WX    TMP DP  RH WIND       PRES   REMARKS
JACKSON        CLOUDY    43 N/A N/A N6        29.96R
LAMBERTVILLE   CLOUDY    48  46  93 CALM      29.94S
LANSING        CLOUDY    43  41  93 N12       29.98R
LAPEER         CLOUDY    43  42  97 N7        29.96S
MASON          CLOUDY    42  41  95 N7        29.97R
MONROE         CLOUDY    47  46  98 E3        29.92F
MT. CLEMENS    CLOUDY    46  46 100 N5        29.93S
PONTIAC        CLOUDY    44  43  96 N7        29.94S
PORT HOPE        N/A     41  39  93 NE10      29.99F
PORT HURON     LGT RAIN  45  45 100 NE8       29.94F
TRI CITIES     CLOUDY    43  37  79 N12       30.02R
MIDLAND        FAIR      41  35  79 N5        30.03S
TROY           CLOUDY    46  45  95 N3        29.96R
SAGINAW HB     CLOUDY    43  39  87 N9        30.01R
$$
MIZ043>046-050>051-056>058-064>065-071>073-077>080-021000-
SOUTHWEST LOWER MICHIGAN

CITY           SKY/WX    TMP DP  RH WIND       PRES   REMARKS
BATTLE CREEK   CLOUDY    43  41  93 N9        29.98R
BENTON HARBOR  CLOUDY    45  42  89 NE5       30.00S
BIG RAPIDS     CLOUDY    40  33  75 N5        30.04R
COLDWATER      CLOUDY    45  44  97 N8        29.96R
FREMONT        CLOUDY    44  34  68 CALM      30.04R
HOLLAND        CLOUDY   N/A N/A N/A N6        30.03R
GRAND RAPIDS   CLOUDY    44  40  85 N9        30.02R
IONIA          DRIZZLE   41  40  95 N8        30.00R
KALAMAZOO      CLOUDY    44  40  85 N9        29.99R
LUDINGTON      CLEAR     35  35 100 N3        30.07S
MARSHALL       CLOUDY    43  42  95 N5        29.96R
MOUNT PLEASANT CLOUDY    40  35  80 N3        30.03S
MUSKEGON       CLOUDY    45  34  65 N5        30.05R
SOUTH HAVEN    CLOUDY    44  43  97 NE8       30.01S
$$
MIZ016>042-021000-
NORTHERN LOWER MICHIGAN

CITY           SKY/WX    TMP DP  RH WIND       PRES   REMARKS
ALPENA         MOCLDY    34  31  88 CALM      30.06F
BEAVER ISLAND  CLOUDY    32  32  99 CALM      30.07R
BELLAIRE       PTCLDY    32  31  96 CALM      30.08R
CADILLAC       CLEAR     31  30  94 CALM      30.04S
CHARLEVOIX     MOCLDY    35  33  91 CALM      30.10R
FRANKFORT      CLEAR     35  33  94 CALM      30.07S
GAYLORD        PTCLDY    34  30  85 CALM      30.05S
GRAYLING       CLEAR     28  28 100 CALM      30.05F
HARBOR SPRINGS MOCLDY    36  32  83 CALM      30.07R
HOUGHTON LAKE  CLEAR     32  30  92 N6        30.04S WCI  26
MANISTEE       CLEAR     36  30  80 CALM      30.08R
OSCODA         CLEAR     38  36  90 N7        30.03F WCI  33
PELLSTON       MOCLDY    30  28  92 CALM      30.07S
ROGERS CITY    CLOUDY    34  32  92 CALM      30.08R
TRAVERSE CITY  CLEAR     34  31  88 CALM      30.06S
$$
MIZ007>008-015-021000-
EASTERN UPPER MICHIGAN

CITY           SKY/WX    TMP DP  RH WIND       PRES   REMARKS
KINROSS          N/A     45  34  65 CALM      30.06S
MACKINAC ISLAN MOCLDY    39  32  76 SW3       30.06S
NEWBERRY       CLEAR     40  33  78 N6        30.06S
S. S. MARIE    MOCLDY    45  34  65 SE3       30.06S
MUNISING         N/A     31  28  89 S5        30.09S WCI  26
$$
MIZ004>006-011>014-085-021000-
CENTRAL UPPER MICHIGAN

CITY           SKY/WX    TMP DP  RH WIND       PRES   REMARKS
MANISTIQUE     CLEAR     35  32  90 CALM      30.07S
ESCANABA       CLEAR     37  30  75 NW5       30.08F WCI  34
MENOMINEE      CLEAR     37  30  75 CALM      30.09F
SAWYER-GWINN   CLEAR     30  28  90 NW6       30.08F WCI  24
$$
MIZ001>003-009>011-084-021000-
WESTERN UPPER MICHIGAN

CITY           SKY/WX    TMP DP  RH WIND       PRES   REMARKS
IRON MOUNTAIN  PTCLDY    29  24  82 N5        30.10R WCI  24
HOUGHTON       CLEAR     36  30  79 NW6       30.11S WCI  31
COPPER HARBOR    N/A     33  32  96 W5        30.11F WCI  29
IRONWOOD         N/A     28  27  93 CALM      30.11R
$$

ABBREVIATIONS USED IN REMARKS
   TC - TEMPERATURE IN CELSIUS
  WCI - WIND CHILL INDEX
   HX - HEAT INDEX
  VSB - VISIBILITY




USA.gov is the U.S. government's official web portal to all federal, state and local government web resources and services.